Temperature
21 20 19 19 19 20 22 24 25 25 26 26 26 26 25 24 23 23 23 24 24 22 21 20 20 20 20 21 21 21 21 21 21 21 20 20 20 20 20 20 20 20 20 20 20 20 20 20 20
21 20 19 19 20 23 24 25 25 26 26 27 27 26 25 23 23 24 24 24 23 22 21 21 20 20 21 21 21 21 21 21 21 21 20 20 20 20 20 20 20 20 20 20 20 20 20 20 20
21 20 20 19 21 23 25 26 26 26 26 27 26 25 24 24 24 24 25 24 23 22 21 21 21 21 21 21 21 21 21 21 21 20 20 20 20 20 20 20 20 20 20 20 20 20 20 20 20
22 21 21 20 23 24 25 26 26 26 26 26 25 24 24 24 24 25 25 24 23 22 21 21 21 21 21 21 21 21 21 21 21 20 20 20 20 20 20 20 20 20 20 20 20 20 20 20 20
22 21 20 21 23 24 25 26 26 26 26 26 25 24 24 25 25 25 25 24 23 22 22 21 21 21 21 21 21 21 21 21 21 20 20 20 20 20 20 20 20 20 20 20 20 20 20 19 19
22 20 21 22 24 25 25 26 26 26 26 26 25 24 24 25 25 25 24 24 23 23 22 21 21 21 21 21 21 21 21 21 20 20 20 20 20 20 20 20 20 20 20 20 20 20 19 19 19
23 20 22 23 24 25 26 26 26 25 25 26 26 24 24 25 24 24 24 23 23 22 22 21 21 20 20 20 20 20 20 20 20 20 20 20 20 20 20 20 20 20 19 19 19 19 19 19 19
24 20 23 23 24 25 26 26 26 26 26 27 26 25 25 26 24 23 23 23 22 22 21 21 21 20 20 20 20 20 20 20 20 20 20 20 20 20 20 19 19 19 19 19 19 19 19 19 19
24 20 21 23 25 25 26 25 26 27 26 26 26 26 26 26 24 23 22 22 22 21 21 21 20 20 20 20 20 20 20 20 19 19 19 19 19 19 19 19 19 19 19 19 19 19 19 18 18
23 20 22 24 25 25 25 25 26 26 25 26 27 26 25 25 24 23 22 22 21 21 21 20 20 20 19 19 19 19 19 19 19 19 19 19 19 19 19 19 19 19 19 18 18 18 18 18 18
22 22 23 24 26 26 25 25 26 25 24 26 26 26 25 24 23 22 22 21 21 21 20 20 19 19 19 19 19 19 19 19 19 19 19 19 19 19 19 19 19 19 18 18 18 18 18 18 18
23 23 25 26 27 26 25 25 24 24 25 26 26 25 24 23 22 21 20 20 20 20 20 20 19 19 19 19 19 19 19 19 19 19 19 19 19 19 19 19 18 18 18 18 18 17 18 18 18
24 24 26 26 26 25 24 23 23 23 24 24 24 23 22 21 20 20 20 20 20 20 20 20 20 19 19 19 19 19 19 19 19 19 19 19 19 19 18 18 18 18 18 17 17 17 17 17 17
24 24 24 25 25 25 23 21 20 20 22 22 22 21 20 20 20 20 19 19 19 19 19 19 19 19 19 19 18 18 19 19 19 19 19 18 18 18 18 18 18 18 18 17 17 17 17 17 17
24 23 22 22 23 23 23 19 18 18 20 19 18 18 18 19 19 19 19 19 18 18 18 18 18 18 18 18 18 18 18 18 19 19 19 18 18 17 17 18 18 18 17 17 17 17 17 17 17
23 22 22 21 20 21 21 18 17 17 18 17 16 16 16 16 17 17 17 17 17 17 18 18 18 18 18 18 18 18 18 18 18 18 18 18 17 17 17 17 18 17 17 17 17 17 17 17 17
21 22 22 21 19 18 17 16 17 16 16 16 15 15 15 15 15 16 16 17 17 17 17 17 17 17 17 17 17 17 17 17 17 17 18 17 17 17 17 17 17 17 17 17 17 16 16 16 16
23 23 22 20 19 18 16 16 16 16 16 15 15 14 15 15 15 16 16 16 17 17 17 17 17 17 16 16 16 16 16 16 16 17 17 17 17 17 17 17 17 17 17 17 16 16 16 16 16
23 23 22 21 19 17 16 15 16 15 15 15 14 14 14 14 15 15 16 16 17 17 17 17 17 17 16 16 16 16 16 16 16 16 16 16 17 17 17 17 17 17 17 17 16 16 16 16 16
23 23 22 20 19 17 16 15 15 15 14 14 13 13 14 14 15 15 16 16 17 17 17 16 16 16 16 16 15 15 15 16 16 16 16 16 17 17 17 17 17 17 17 17 16 16 16 16 15
24 23 23 21 19 17 16 15 15 15 15 14 13 13 14 14 14 15 16 16 16 16 16 16 16 16 16 16 16 16 16 16 16 16 16 16 16 17 17 17 17 17 17 17 17 16 16 16 15
24 24 23 22 19 17 18 17 15 14 14 14 14 14 14 14 15 15 16 16 16 16 16 16 16 16 16 16 16 16 15 15 15 15 16 16 16 17 17 17 17 17 17 17 17 16 16 16 16
24 22 21 21 19 17 17 17 16 14 14 14 14 14 14 15 15 15 16 16 16 16 16 16 16 16 16 15 15 15 15 15 15 15 15 15 16 16 16 16 16 16 16 16 16 16 16 16 16
23 21 19 17 17 18 17 17 16 15 14 14 14 14 14 15 15 15 15 15 16 16 16 16 16 16 15 15 15 14 14 14 14 14 14 15 15 15 15 16 16 16 16 16 16 16 16 16 16
21 20 19 19 18 18 17 17 16 16 15 15 14 14 15 15 15 15 15 15 15 15 15 15 15 15 15 14 14 14 14 13 13 13 13 13 13 14 14 14 15 15 15 15 15 15 16 16 16
22 20 19 19 18 17 17 17 16 15 15 15 15 15 14 14 14 15 15 15 15 15 15 15 14 14 14 14 13 13 13 13 13 13 12 12 12 12 13 13 13 13 14 14 15 15 15 15 15
22 19 18 16 17 17 17 17 16 15 15 14 14 14 14 14 14 15 15 15 14 14 14 14 14 13 13 13 13 13 12 12 12 12 12 11 11 11 12 12 12 12 13 13 14 14 14 14 15
20 17 16 16 17 18 18 17 14 14 13 13 13 14 14 15 15 15 14 14 14 13 13 13 13 13 13 13 12 12 12 12 12 11 11 11 11 11 11 11 11 11 12 12 12 13 13 14 14
20 19 15 14 15 16 17 16 14 13 13 13 13 14 14 14 14 14 13 13 13 13 12 12 12 12 12 12 12 12 12 11 11 11 11 10 10 10 10 10 10 10 11 11 11 12 12 12 13
19 18 16 17 16 15 15 14 13 13 13 13 14 14 14 14 13 13 13 12 12 12 12 12 12 11 11 11 11 11 11 11 11 11 11 10 10 10 10 10 10 10 10 10 11 11 11 11 12
Wind_Speed
16 13 4 3 1 1 2 3 2 4 3 2 2 2 4 4 4 4 1 11 16 15 17 21 21 21 20 19 18 18 17 17 17 17 17 18 18 17 17 16 15 14 13 12 12 11 11 11 11
10 7 2 2 1 2 3 3 2 1 1 0 3 4 4 1 1 3 5 9 15 14 15 18 22 21 21 19 18 17 17 17 16 16 16 16 17 16 16 15 14 13 12 12 11 11 11 11 10
7 3 3 3 1 2 4 3 2 1 1 2 3 4 2 2 4 6 7 12 14 13 14 18 23 22 21 20 19 18 17 16 16 15 15 15 15 15 14 14 13 12 11 11 10 10 10 9 9
4 2 3 2 4 5 5 5 2 1 1 3 3 3 1 0 6 7 13 16 16 13 13 18 23 23 22 20 19 18 17 16 16 15 15 15 14 14 14 13 11 11 10 10 9 9 9 9 8
3 4 3 3 5 6 5 4 2 1 0 1 3 3 1 2 7 12 17 17 17 13 11 16 23 23 22 21 20 18 17 16 16 15 15 14 14 13 13 12 11 10 10 10 9 9 9 9 9
4 4 3 3 6 6 5 3 1 1 0 1 2 3 2 3 8 12 15 15 15 14 10 14 21 22 21 20 19 18 17 16 16 15 15 14 14 13 13 12 12 11 11 11 11 10 10 10 10
5 4 3 4 5 6 4 1 0 1 1 3 4 4 2 4 6 10 10 11 11 11 9 8 14 18 19 19 18 17 17 16 16 16 15 15 14 14 14 13 13 13 13 12 12 12 12 11 11
5 4 2 3 4 6 4 2 2 3 4 2 4 5 5 5 11 10 9 9 8 8 7 6 8 11 12 14 16 16 16 16 16 16 16 16 16 15 15 15 14 15 14 14 14 14 14 13 13
4 4 3 5 4 6 3 3 3 2 2 2 3 3 3 14 16 13 9 8 8 8 6 5 5 5 7 8 11 14 15 15 16 16 17 17 14 14 14 15 16 16 16 16 16 16 16 15 15
5 4 8 6 5 5 5 5 4 2 3 4 3 3 10 17 16 14 11 10 10 9 8 5 4 4 4 5 5 7 9 11 13 12 13 13 12 13 14 14 18 18 18 18 18 18 17 16 13
6 7 6 6 6 5 4 4 1 3 5 7 5 4 11 12 12 11 10 9 8 7 7 5 4 4 3 1 1 3 6 7 9 11 12 11 10 11 13 11 13 15 17 16 16 17 15 14 13
3 7 6 6 4 3 3 1 0 2 6 3 1 8 10 11 9 9 9 9 9 8 7 6 5 4 2 1 1 3 5 6 7 11 13 11 7 7 9 9 11 11 12 11 12 10 12 14 15
4 6 5 7 8 4 1 2 2 5 9 7 11 13 13 12 10 9 10 10 9 8 7 7 6 5 3 2 3 5 6 7 9 11 13 14 8 9 8 7 10 11 12 10 8 7 8 9 10
5 6 8 8 6 2 7 7 8 11 12 8 14 16 16 14 12 11 9 9 8 8 7 5 5 4 3 3 5 6 7 8 10 10 13 16 13 9 9 9 8 9 11 11 8 7 7 7 6
3 6 8 7 7 3 7 12 14 16 9 15 18 18 18 16 14 12 9 7 7 6 5 4 2 2 3 6 8 8 8 8 7 8 12 14 14 12 9 9 9 8 10 9 6 5 4 4 4
4 4 5 8 12 8 8 8 15 14 14 17 16 16 17 16 14 12 10 8 7 5 3 2 1 3 5 6 8 8 7 7 6 6 8 11 14 15 10 9 9 7 6 5 4 4 4 4 4
6 4 4 7 14 8 10 8 11 12 15 15 14 14 14 13 12 10 9 7 6 5 4 4 5 5 5 6 7 8 6 6 4 4 5 8 13 15 10 9 7 6 4 4 4 3 3 3 4
3 3 3 4 7 13 14 11 11 12 14 14 13 12 11 11 10 8 8 7 6 6 5 5 5 6 6 5 5 4 3 3 3 4 4 8 11 12 8 7 6 5 5 4 4 3 3 2 3
3 1 1 2 5 9 13 12 11 11 12 12 11 10 9 8 7 7 7 7 6 7 6 6 7 7 6 4 4 4 4 3 2 2 5 8 9 9 7 6 6 6 6 6 5 3 3 2 2
4 2 2 4 8 7 9 11 8 10 9 8 8 8 7 6 7 7 6 6 6 6 6 6 7 7 7 4 3 3 3 2 1 2 3 5 6 6 6 7 7 7 5 5 6 4 3 2 3
2 4 4 5 5 6 7 6 5 5 6 7 8 7 7 7 7 6 6 6 6 6 6 5 5 5 6 6 4 3 3 3 4 5 4 5 5 3 4 7 6 7 7 7 7 6 6 4 3
3 3 3 7 6 2 3 2 1 1 5 5 6 6 6 5 5 4 5 6 6 4 4 4 4 5 5 5 5 5 4 3 3 3 4 6 5 4 2 3 6 7 6 7 7 7 5 5 4
2 4 5 5 5 4 4 4 2 3 2 3 3 3 4 4 5 5 5 5 5 5 4 4 4 3 3 3 4 4 3 1 2 3 5 6 6 6 6 4 2 4 6 7 7 7 7 6 5
4 6 6 6 5 3 2 2 3 5 5 4 3 3 4 5 6 6 6 7 7 7 6 5 4 4 3 2 1 2 1 2 3 3 4 4 4 4 6 5 4 3 4 6 7 8 9 8 6
6 6 5 6 5 3 2 1 4 3 4 5 6 6 6 6 6 8 8 8 9 9 8 7 6 6 5 4 3 2 2 2 2 3 3 3 3 3 4 4 4 4 4 5 6 8 9 9 8
2 7 6 3 4 4 3 2 3 1 3 3 3 4 5 6 7 9 10 10 10 10 9 8 7 8 8 7 7 6 5 4 4 5 4 4 4 4 4 4 4 4 4 4 5 7 9 8 10
3 4 4 6 2 1 4 3 3 3 1 1 1 2 5 7 8 9 10 10 10 10 10 9 9 9 9 9 9 8 8 7 7 7 6 5 6 5 5 4 4 3 3 3 3 5 8 8 10
6 7 5 5 2 2 4 3 4 5 4 1 0 2 5 7 8 9 9 9 8 9 9 9 9 10 11 10 10 9 9 9 9 8 8 8 8 7 7 6 5 5 3 3 2 3 5 7 8
6 6 6 5 4 4 3 3 3 3 2 0 2 4 6 8 9 9 9 9 9 9 10 10 11 11 11 12 12 11 11 11 10 9 10 10 9 8 8 7 7 6 6 4 3 3 3 5 6
4 5 4 3 0 2 2 4 2 1 1 1 3 6 8 9 10 9 9 9 10 11 11 11 12 13 13 13 12 13 12 11 11 12 12 11 11 10 9 8 8 8 7 5 5 5 4 5 5
Wind_Direction
143 141 138 146 131 31 285 268 274 338 359 356 100 119 138 151 186 226 26 143 140 149 159 167 164 161 157 154 153 152 151 149 150 152 154 157 159 160 161 161 161 161 161 159 158 155 151 148 146
142 151 148 107 100 13 294 267 324 6 245 346 63 74 69 81 84 116 126 143 143 147 157 163 165 162 160 158 157 156 155 155 156 157 159 161 164 165 165 165 164 164 164 163 163 161 159 155 153
157 178 114 91 198 217 268 261 245 219 165 91 72 67 98 203 154 161 159 144 141 147 156 166 166 165 164 163 162 162 161 162 163 165 166 168 170 172 172 172 171 171 170 170 170 169 165 162 161
146 81 66 58 270 246 240 258 238 249 11 59 101 87 85 46 163 159 146 146 147 151 157 169 168 168 168 167 167 168 168 170 172 173 175 177 178 180 181 182 182 181 181 180 179 177 174 172 172
84 94 58 335 275 266 259 274 256 247 82 67 121 133 197 19 117 137 147 152 154 153 158 171 170 171 171 172 173 174 175 177 180 183 184 185 187 189 190 191 192 192 192 191 190 189 186 186 187
77 80 81 287 279 282 282 276 319 314 311 108 125 149 217 123 133 151 153 155 156 155 156 170 172 174 175 177 179 180 182 184 187 191 193 194 196 197 199 200 202 203 204 204 203 203 202 202 202
132 125 192 246 279 291 287 329 275 260 262 206 163 166 231 163 153 144 143 142 145 151 152 163 170 175 178 181 184 187 189 191 195 198 201 203 204 206 208 210 212 214 215 216 216 216 217 217 218
151 125 216 261 263 278 290 320 282 215 245 208 161 181 221 176 136 125 119 120 129 140 148 148 155 164 172 182 189 192 197 201 204 206 208 210 212 214 216 218 221 223 224 226 227 228 229 229 229
113 88 221 237 236 268 277 276 281 256 258 248 217 207 161 132 132 127 120 120 138 154 149 138 134 140 155 174 197 202 207 211 213 216 217 217 219 222 225 226 227 231 233 233 234 235 236 236 237
112 164 227 232 225 260 273 249 253 288 292 280 273 88 112 131 140 141 144 151 159 166 166 148 136 121 126 182 208 221 223 223 221 220 225 224 220 223 230 234 235 237 239 240 240 240 240 241 239
166 202 240 259 255 257 263 264 225 178 264 250 237 129 126 130 137 142 145 143 149 150 158 148 137 111 109 133 262 247 237 233 229 226 226 229 226 227 234 235 241 246 246 245 245 244 237 234 233
224 247 245 265 264 273 248 252 38 204 248 300 41 105 113 122 129 126 124 124 128 135 145 137 135 130 143 178 252 250 241 235 231 228 226 226 229 229 231 234 235 239 244 245 244 241 234 233 233
246 263 267 259 275 246 118 52 47 335 315 11 67 86 95 95 88 97 112 116 121 129 138 146 145 152 176 212 243 239 236 234 236 233 229 227 229 234 232 233 235 236 238 240 240 236 232 230 231
259 272 287 296 283 207 105 50 27 344 339 50 72 74 72 75 79 84 93 102 110 120 130 132 138 167 183 232 259 258 246 238 232 228 229 230 233 236 234 235 235 236 236 236 235 229 228 227 224
297 308 326 355 347 344 106 47 14 348 38 70 75 76 71 68 69 70 73 80 93 105 113 126 157 205 229 237 243 248 246 241 230 228 230 234 238 240 237 236 237 235 230 229 228 223 210 211 213
13 17 355 355 2 10 79 56 11 9 60 72 77 76 75 67 62 59 60 61 59 65 66 42 340 263 257 261 261 257 250 240 237 234 237 240 242 242 237 234 235 229 218 209 205 199 197 206 208
28 17 352 2 16 39 71 67 19 30 62 71 73 74 73 67 55 46 47 51 44 33 26 4 342 325 301 282 266 260 250 244 245 247 241 248 247 243 232 228 225 206 197 194 193 184 186 197 207
309 344 20 52 41 65 79 69 36 37 58 68 69 68 65 60 46 34 34 35 34 25 17 10 349 338 326 310 301 303 300 255 235 243 247 251 247 238 220 214 206 188 184 183 180 170 174 188 194
240 230 118 124 124 72 76 66 39 34 46 55 59 58 57 54 46 41 39 38 43 35 24 16 6 358 355 344 334 329 319 289 251 245 264 252 239 225 202 199 191 185 185 187 180 164 174 185 164
198 161 113 98 115 104 91 68 39 33 39 43 49 49 49 47 40 31 27 27 33 34 28 24 16 6 359 345 317 296 307 313 346 353 305 276 253 229 207 199 193 189 183 183 181 168 164 179 173
185 186 181 157 115 122 120 71 28 12 25 38 38 38 37 42 34 17 12 12 21 24 17 17 9 5 3 357 347 343 354 357 14 7 345 320 304 260 219 208 198 193 187 192 191 180 171 182 194
288 271 175 149 140 161 175 130 176 332 356 9 14 16 18 13 11 357 353 355 3 359 352 352 353 357 358 10 37 47 36 19 356 339 336 338 343 334 304 239 213 203 199 198 195 187 179 168 183
213 48 77 107 122 86 44 113 198 195 257 284 308 335 338 334 333 324 322 321 317 312 311 308 319 338 345 12 44 62 52 5 324 337 348 350 353 360 3 343 273 228 216 213 201 187 187 183 180
119 75 58 56 71 64 331 147 224 209 203 207 230 252 272 289 298 298 299 298 294 292 290 287 296 303 309 333 22 67 50 352 350 346 345 342 338 345 356 356 341 293 247 226 214 204 197 197 191
70 74 27 7 9 274 298 152 249 219 179 184 203 225 246 267 278 283 285 283 279 278 274 273 276 281 283 286 281 260 246 256 271 282 293 306 314 312 321 334 327 311 283 254 225 212 210 203 201
78 123 146 206 237 284 344 297 299 169 144 152 183 218 248 265 272 275 275 274 276 278 276 270 265 266 272 273 272 269 259 250 251 252 253 258 257 263 274 290 300 302 299 280 240 225 220 211 211
95 76 141 130 136 356 306 312 357 64 81 155 190 235 261 270 274 275 278 281 282 283 280 273 267 268 268 264 263 264 260 251 251 253 253 256 258 262 262 267 278 287 292 294 273 239 230 217 215
86 132 87 93 119 303 311 342 333 326 307 272 250 273 284 286 285 287 289 292 295 294 291 288 272 266 268 267 262 263 254 250 248 250 252 251 253 256 265 269 267 269 270 267 265 269 250 232 224
10 51 83 93 129 151 269 282 341 305 326 6 282 284 285 287 288 290 295 299 297 298 295 290 284 278 276 272 268 265 262 257 250 246 248 248 250 249 250 256 262 265 263 251 237 243 262 253 243
66 60 110 110 94 135 190 261 318 352 34 320 289 286 287 287 288 290 294 297 296 294 293 288 284 282 279 277 275 272 268 262 255 250 248 244 243 244 243 243 246 253 255 246 236 241 240 246 255
Height
1506 1507 1509 1512 1514 1516 1512 1501 1492 1488 1486 1484 1485 1486 1486 1489 1493 1496 1488 1487 1491 1495 1500 1504 1509 1513 1516 1519 1521 1524 1526 1528 1530 1532 1534 1535 1537 1538 1540 1541 1542 1543 1545 1546 1546 1547 1548 1549 1550
1507 1508 1511 1512 1514 1519 1509 1495 1491 1487 1485 1484 1484 1485 1486 1486 1487 1487 1486 1488 1493 1497 1501 1505 1510 1514 1517 1519 1522 1524 1527 1529 1531 1533 1534 1536 1538 1539 1541 1542 1543 1544 1546 1547 1547 1548 1549 1550 1551
1507 1509 1511 1512 1514 1515 1504 1491 1488 1485 1484 1484 1484 1485 1486 1486 1486 1486 1488 1490 1494 1498 1502 1506 1510 1514 1517 1520 1522 1525 1527 1529 1531 1533 1535 1536 1538 1540 1541 1543 1544 1545 1546 1547 1548 1549 1550 1550 1551
1507 1510 1511 1514 1512 1502 1494 1488 1485 1485 1484 1484 1484 1486 1486 1486 1486 1487 1489 1492 1495 1499 1503 1507 1511 1514 1518 1521 1523 1526 1528 1530 1532 1534 1535 1537 1538 1540 1542 1543 1544 1545 1546 1547 1548 1549 1550 1550 1551
1507 1508 1513 1517 1509 1497 1489 1486 1485 1484 1484 1484 1484 1485 1485 1486 1486 1488 1490 1493 1496 1499 1504 1508 1512 1515 1518 1521 1524 1526 1528 1530 1532 1534 1535 1537 1538 1540 1541 1543 1544 1545 1546 1547 1548 1549 1550 1550 1551
1507 1508 1518 1519 1507 1495 1488 1486 1485 1485 1484 1484 1484 1484 1484 1486 1487 1490 1492 1494 1497 1500 1504 1508 1512 1516 1519 1522 1525 1527 1529 1531 1532 1534 1536 1537 1538 1540 1541 1542 1543 1544 1545 1546 1547 1548 1549 1550 1551
1506 1510 1514 1511 1506 1498 1488 1485 1485 1484 1483 1484 1483 1484 1483 1484 1487 1490 1493 1495 1498 1502 1505 1509 1512 1516 1520 1523 1525 1527 1529 1531 1532 1534 1535 1537 1538 1539 1540 1542 1543 1544 1544 1545 1546 1547 1548 1549 1550
1503 1507 1510 1510 1506 1498 1488 1486 1484 1484 1483 1482 1483 1482 1482 1484 1486 1490 1493 1496 1499 1503 1506 1510 1513 1516 1520 1523 1525 1528 1529 1531 1532 1534 1535 1536 1537 1538 1539 1540 1541 1542 1543 1544 1544 1545 1546 1547 1547
1502 1511 1515 1506 1501 1495 1488 1486 1484 1483 1482 1481 1482 1482 1482 1483 1485 1488 1492 1496 1499 1503 1507 1511 1514 1517 1520 1523 1526 1527 1529 1530 1531 1532 1533 1534 1535 1536 1537 1538 1539 1540 1541 1541 1542 1543 1543 1544 1545
1501 1512 1506 1496 1492 1490 1487 1486 1484 1483 1482 1480 1480 1481 1482 1483 1485 1488 1492 1495 1499 1503 1507 1511 1515 1518 1521 1523 1525 1526 1528 1528 1529 1530 1531 1532 1533 1534 1535 1536 1536 1537 1538 1538 1539 1540 1541 1541 1541
1498 1502 1495 1491 1489 1488 1486 1485 1484 1484 1484 1480 1479 1480 1481 1483 1486 1489 1493 1498 1502 1505 1508 1511 1515 1518 1520 1522 1523 1524 1525 1526 1527 1528 1529 1530 1531 1532 1532 1533 1533 1534 1535 1535 1536 1537 1537 1538 1538
1497 1494 1492 1489 1487 1487 1486 1485 1485 1485 1483 1481 1481 1482 1483 1485 1488 1492 1496 1499 1503 1506 1509 1512 1515 1517 1518 1519 1520 1521 1521 1521 1523 1524 1525 1526 1527 1528 1528 1529 1530 1530 1531 1532 1532 1533 1533 1534 1534
1494 1491 1488 1486 1485 1485 1485 1486 1488 1487 1486 1484 1483 1483 1485 1489 1493 1496 1498 1501 1504 1506 1509 1512 1513 1515 1516 1516 1516 1516 1516 1516 1517 1519 1521 1522 1523 1524 1525 1525 1526 1526 1527 1528 1528 1528 1529 1530 1530
1491 1489 1486 1484 1482 1482 1485 1491 1493 1492 1488 1485 1485 1487 1490 1492 1495 1497 1500 1502 1504 1506 1508 1510 1512 1513 1513 1513 1513 1512 1512 1511 1512 1513 1515 1517 1519 1520 1521 1521 1521 1522 1522 1522 1523 1523 1524 1525 1525
1490 1489 1486 1484 1483 1482 1483 1497 1502 1497 1490 1488 1489 1491 1492 1494 1496 1498 1500 1502 1504 1506 1508 1508 1510 1510 1510 1509 1508 1507 1506 1506 1505 1506 1509 1511 1513 1515 1516 1516 1516 1517 1517 1517 1518 1518 1518 1519 1520
1490 1494 1497 1491 1488 1486 1491 1512 1508 1502 1495 1494 1495 1495 1495 1496 1498 1499 1501 1502 1503 1505 1506 1507 1506 1505 1505 1504 1501 1499 1497 1497 1498 1499 1502 1505 1507 1509 1510 1511 1511 1512 1512 1512 1513 1513 1513 1514 1515
1499 1504 1503 1499 1495 1493 1499 1514 1512 1507 1501 1499 1500 1499 1499 1500 1501 1501 1502 1502 1503 1504 1504 1504 1503 1502 1500 1497 1494 1491 1488 1488 1490 1493 1496 1498 1501 1503 1504 1505 1506 1507 1507 1507 1508 1509 1509 1510 1511
1504 1503 1504 1506 1506 1503 1508 1516 1514 1510 1506 1504 1504 1503 1503 1503 1504 1504 1503 1503 1502 1503 1502 1502 1501 1499 1496 1493 1491 1487 1483 1481 1483 1486 1489 1493 1497 1498 1499 1500 1501 1503 1503 1504 1504 1505 1506 1507 1507
1495 1499 1504 1504 1505 1510 1516 1518 1517 1514 1510 1508 1508 1507 1506 1506 1506 1505 1504 1503 1503 1502 1502 1500 1499 1498 1495 1492 1489 1486 1483 1480 1479 1482 1486 1490 1492 1494 1495 1496 1498 1499 1500 1500 1501 1501 1502 1503 1503
1494 1498 1502 1505 1506 1512 1519 1520 1519 1516 1515 1513 1511 1510 1509 1508 1507 1506 1505 1505 1503 1502 1501 1500 1499 1497 1495 1492 1490 1487 1484 1481 1480 1481 1484 1486 1488 1491 1492 1493 1495 1496 1496 1496 1497 1497 1498 1499 1499
1491 1494 1497 1503 1507 1512 1516 1524 1523 1520 1518 1516 1515 1513 1512 1511 1509 1509 1507 1506 1504 1503 1502 1501 1499 1497 1495 1493 1491 1488 1485 1483 1482 1482 1484 1484 1485 1486 1488 1490 1491 1492 1492 1493 1493 1493 1494 1494 1495
1493 1486 1488 1495 1508 1517 1514 1529 1528 1524 1521 1519 1517 1516 1514 1513 1512 1511 1509 1508 1506 1505 1504 1502 1500 1497 1495 1492 1490 1488 1486 1484 1483 1482 1482 1482 1482 1482 1484 1485 1486 1487 1488 1489 1489 1489 1490 1491 1491
1486 1486 1489 1496 1506 1517 1518 1526 1528 1525 1524 1521 1519 1518 1516 1515 1514 1513 1511 1510 1508 1506 1504 1502 1500 1497 1494 1492 1489 1487 1484 1483 1481 1480 1479 1478 1478 1478 1478 1479 1480 1481 1483 1484 1485 1485 1486 1487 1488
1483 1490 1497 1505 1513 1524 1522 1524 1527 1523 1521 1520 1520 1519 1518 1517 1516 1514 1512 1510 1508 1506 1504 1501 1499 1496 1493 1490 1488 1485 1483 1481 1479 1477 1476 1475 1474 1473 1473 1473 1473 1475 1476 1478 1479 1481 1482 1483 1484
1487 1502 1521 1523 1531 1529 1521 1523 1524 1516 1516 1517 1518 1518 1518 1517 1516 1514 1512 1509 1507 1504 1502 1499 1496 1493 1491 1488 1485 1483 1480 1478 1476 1474 1472 1470 1469 1468 1468 1468 1467 1468 1469 1471 1473 1474 1476 1478 1479
1491 1500 1523 1531 1534 1530 1523 1524 1521 1515 1516 1517 1517 1518 1518 1517 1515 1513 1510 1508 1505 1502 1499 1496 1492 1490 1487 1484 1482 1479 1477 1474 1472 1470 1468 1466 1464 1463 1463 1462 1462 1462 1462 1463 1465 1467 1470 1472 1473
1493 1503 1505 1522 1526 1533 1528 1521 1518 1516 1517 1517 1517 1517 1517 1516 1514 1511 1508 1505 1501 1498 1495 1491 1488 1485 1482 1480 1477 1474 1472 1470 1467 1465 1463 1461 1459 1458 1457 1456 1456 1456 1456 1456 1458 1460 1462 1465 1466
1492 1501 1512 1523 1532 1535 1528 1526 1530 1522 1519 1517 1517 1516 1515 1513 1511 1508 1505 1501 1498 1494 1490 1487 1483 1480 1477 1475 1472 1469 1466 1464 1461 1459 1457 1455 1454 1453 1452 1451 1450 1450 1450 1450 1451 1452 1454 1457 1459
1499 1504 1516 1526 1527 1535 1537 1535 1526 1523 1520 1518 1516 1515 1513 1511 1508 1504 1501 1498 1494 1491 1487 1483 1479 1475 1472 1468 1465 1462 1459 1457 1454 1452 1450 1449 1448 1447 1446 1445 1444 1444 1443 1444 1444 1445 1446 1448 1451
1501 1506 1513 1522 1527 1532 1537 1538 1525 1522 1519 1517 1515 1513 1511 1508 1504 1501 1497 1494 1490 1486 1482 1477 1473 1469 1465 1461 1457 1454 1450 1448 1445 1444 1442 1442 1440 1440 1439 1439 1438 1438 1438 1437 1438 1438 1439 1441 1443